TimeEDT,TemperatureF,Dew PointF,Humidity,Sea Level PressureIn,VisibilityMPH,Wind Direction,Wind SpeedMPH,Gust SpeedMPH,PrecipitationIn,Events,Conditions,WindDirDegrees,DateUTC
12:53 AM,71.1,63.0,75,30.12,10.0,Calm,Calm,-,N/A,,Clear,0,2013-05-30 04:53:00
1:53 AM,70.0,63.0,78,30.12,10.0,Calm,Calm,-,N/A,,Clear,0,2013-05-30 05:53:00
2:53 AM,68.0,63.0,84,30.12,10.0,Calm,Calm,-,N/A,,Clear,0,2013-05-30 06:53:00
3:53 AM,68.0,62.1,81,30.13,10.0,Calm,Calm,-,N/A,,Clear,0,2013-05-30 07:53:00
4:53 AM,66.9,63.0,87,30.15,10.0,Calm,Calm,-,N/A,,Clear,0,2013-05-30 08:53:00
5:53 AM,68.0,62.1,81,30.16,10.0,Calm,Calm,-,N/A,,Mostly Cloudy,0,2013-05-30 09:53:00
6:53 AM,66.9,62.1,84,30.19,10.0,Calm,Calm,-,N/A,,Mostly Cloudy,0,2013-05-30 10:53:00
7:53 AM,71.1,63.0,75,30.20,10.0,SE,3.5,-,N/A,,Scattered Clouds,130,2013-05-30 11:53:00
8:53 AM,73.0,64.0,73,30.21,10.0,SE,3.5,-,N/A,,Scattered Clouds,140,2013-05-30 12:53:00
9:53 AM,75.9,64.9,69,30.21,10.0,SSE,9.2,-,N/A,,Mostly Cloudy,150,2013-05-30 13:53:00
10:53 AM,77.0,64.9,66,30.20,10.0,SSE,12.7,17.3,N/A,,Mostly Cloudy,160,2013-05-30 14:53:00
11:53 AM,75.9,64.0,67,30.20,10.0,South,10.4,-,N/A,,Mostly Cloudy,180,2013-05-30 15:53:00
12:53 PM,80.1,64.0,58,30.19,10.0,SSE,11.5,19.6,N/A,,Mostly Cloudy,160,2013-05-30 16:53:00
1:53 PM,81.0,64.0,56,30.17,10.0,SSE,8.1,17.3,N/A,,Mostly Cloudy,150,2013-05-30 17:53:00
2:53 PM,81.0,64.0,56,30.15,10.0,SSE,8.1,-,N/A,,Mostly Cloudy,160,2013-05-30 18:53:00
3:53 PM,82.9,63.0,51,30.13,10.0,SSE,10.4,-,N/A,,Mostly Cloudy,160,2013-05-30 19:53:00
4:53 PM,84.0,64.0,51,30.11,10.0,South,9.2,-,N/A,,Mostly Cloudy,170,2013-05-30 20:53:00
5:53 PM,82.9,64.0,53,30.09,10.0,SE,10.4,-,N/A,,Mostly Cloudy,130,2013-05-30 21:53:00
6:53 PM,82.0,64.0,54,30.09,10.0,SSE,8.1,-,N/A,,Mostly Cloudy,150,2013-05-30 22:53:00
7:53 PM,81.0,64.0,56,30.09,10.0,SSE,6.9,-,N/A,,Mostly Cloudy,150,2013-05-30 23:53:00
8:53 PM,79.0,63.0,58,30.09,10.0,Variable,5.8,-,N/A,,Mostly Cloudy,0,2013-05-31 00:53:00
9:53 PM,78.1,64.0,62,30.10,10.0,Calm,Calm,-,N/A,,Mostly Cloudy,0,2013-05-31 01:53:00
10:53 PM,75.9,64.0,67,30.11,10.0,SE,3.5,-,N/A,,Scattered Clouds,140,2013-05-31 02:53:00
11:53 PM,75.0,64.0,69,30.12,10.0,Calm,Calm,-,N/A,,Scattered Clouds,0,2013-05-31 03:53:00